| time (UTC) | temp F | wind direction | speed MPH | gust MPH | rain 1hr in | rain 24hr in | rain mn in | humidity % | barometer mb |
| 20260902191534 | 77 | 194 | 7.0 | 13.0 | 0.00 | 0.00 | 0.00 | 38 | 1006.7 |
| 20260902190031 | 77 | 179 | 8.0 | 15.0 | 0.00 | 0.00 | 0.00 | 39 | 1006.9 |
| 20260902184529 | 77 | 200 | 9.0 | 14.0 | 0.00 | 0.00 | 0.00 | 39 | 1007.0 |
| 20260902183026 | 76 | 115 | 8.0 | 17.0 | 0.00 | 0.00 | 0.00 | 41 | 1007.2 |
| 20260902181521 | 75 | 173 | 8.0 | 16.0 | 0.00 | 0.00 | 0.00 | 43 | 1007.5 |
| 20260902180019 | 74 | 205 | 9.0 | 17.0 | 0.00 | 0.00 | 0.00 | 42 | 1007.6 |
| 20260902174523 | 74 | 156 | 11.0 | 15.0 | 0.00 | 0.00 | 0.00 | 44 | 1007.8 |
| 20260902173012 | 72 | 188 | 10.0 | 16.0 | 0.00 | 0.00 | 0.00 | 47 | 1008.0 |
| 20260902171511 | 71 | 200 | 8.0 | 12.0 | 0.00 | 0.00 | 0.00 | 48 | 1008.1 |
| 20260902170008 | 71 | 184 | 9.0 | 13.0 | 0.00 | 0.00 | 0.00 | 49 | 1007.9 |
| 20260902164514 | 70 | 215 | 9.0 | 12.0 | 0.00 | 0.00 | 0.00 | 48 | 1007.9 |
| 20260902163009 | 71 | 205 | 7.0 | 11.0 | 0.00 | 0.00 | 0.00 | 48 | 1007.9 |
| 20260902161515 | 70 | 210 | 6.0 | 12.0 | 0.00 | 0.00 | 0.00 | 48 | 1007.9 |
| 20260902160001 | 69 | 208 | 7.0 | 16.0 | 0.00 | 0.00 | 0.00 | 49 | 1008.0 |
| 20260902154559 | 69 | 191 | 6.0 | 11.0 | 0.00 | 0.00 | 0.00 | 49 | 1008.2 |
| 20260902153055 | 68 | 232 | 6.0 | 11.0 | 0.00 | 0.00 | 0.00 | 51 | 1008.3 |
| 20260902151549 | 64 | 173 | 1.0 | 3.0 | 0.00 | 0.00 | 0.00 | 57 | 1008.5 |
| 20260902150044 | 61 | 173 | 2.0 | 3.0 | 0.00 | 0.00 | 0.00 | 59 | 1008.6 |
| 20260902144548 | 59 | 173 | 0.0 | 2.0 | 0.00 | 0.00 | 0.00 | 65 | 1008.7 |
| 20260902143041 | 58 | 173 | 2.0 | 4.0 | 0.00 | 0.00 | 0.00 | 66 | 1008.9 |
| 20260902141539 | 57 | 173 | 2.0 | 3.0 | 0.00 | 0.00 | 0.00 | 69 | 1009.0 |
| 20260902140039 | 57 | 173 | 1.0 | 4.0 | 0.00 | 0.00 | 0.00 | 67 | 1009.0 |
| 20260902134538 | 56 | 173 | 4.0 | 5.0 | 0.00 | 0.00 | 0.00 | 69 | 1009.0 |
| 20260902133051 | 54 | 149 | 1.0 | 8.0 | 0.00 | 0.00 | 0.00 | 69 | 1008.8 |
| 20260902131534 | 53 | 151 | 3.0 | 7.0 | 0.00 | 0.00 | 0.00 | 73 | 1008.6 |
| 20260902130030 | 51 | 346 | 0.0 | 3.0 | 0.00 | 0.00 | 0.00 | 75 | 1008.6 |
| 20260902124526 | 50 | 346 | 1.0 | 3.0 | 0.00 | 0.00 | 0.00 | 75 | 1008.7 |
| 20260902123024 | 50 | 346 | 1.0 | 5.0 | 0.00 | 0.00 | 0.00 | 75 | 1008.4 |
| 20260902121522 | 50 | 346 | 1.0 | 4.0 | 0.00 | 0.00 | 0.00 | 76 | 1008.6 |
| 20260902120022 | 51 | 225 | 1.0 | 5.0 | 0.00 | 0.00 | 0.00 | 73 | 1008.8 |
| 20260902114523 | 53 | 323 | 2.0 | 6.0 | 0.00 | 0.00 | 0.00 | 70 | 1008.9 |
| 20260902113019 | 52 | 313 | 1.0 | 5.0 | 0.00 | 0.00 | 0.00 | 74 | 1009.1 |
| 20260902111519 | 51 | 273 | 3.0 | 10.0 | 0.00 | 0.00 | 0.00 | 77 | 1009.2 |
| 20260902110019 | 47 | 293 | 1.0 | 3.0 | 0.00 | 0.00 | 0.00 | 80 | 1009.3 |
| 20260902104517 | 46 | 293 | 2.0 | 4.0 | 0.00 | 0.00 | 0.00 | 80 | 1009.5 |
| 20260902103015 | 46 | 292 | 0.0 | 3.0 | 0.00 | 0.00 | 0.00 | 79 | 1009.0 |
| 20260902101516 | 46 | 293 | 1.0 | 3.0 | 0.00 | 0.00 | 0.00 | 78 | 1009.0 |
| 20260902100010 | 47 | 292 | 1.0 | 3.0 | 0.00 | 0.00 | 0.00 | 78 | 1009.0 |
| 20260902094509 | 48 | 293 | 1.0 | 4.0 | 0.00 | 0.00 | 0.00 | 75 | 1008.7 |
| 20260902093005 | 48 | 331 | 3.0 | 7.0 | 0.00 | 0.00 | 0.00 | 74 | 1008.9 |
| 20260902091503 | 48 | 282 | 2.0 | 8.0 | 0.00 | 0.00 | 0.00 | 77 | 1009.0 |
| 20260902090002 | 47 | 290 | 2.0 | 4.0 | 0.00 | 0.00 | 0.00 | 77 | 1009.3 |
| 20260902084605 | 48 | 287 | 1.0 | 4.0 | 0.00 | 0.00 | 0.00 | 75 | 1009.3 |
| 20260902083112 | 49 | 315 | 2.0 | 4.0 | 0.00 | 0.00 | 0.00 | 74 | 1009.3 |
| 20260902081551 | 50 | 314 | 2.0 | 4.0 | 0.00 | 0.00 | 0.00 | 74 | 1009.3 |
| 20260902080047 | 50 | 315 | 0.0 | 2.0 | 0.00 | 0.00 | 0.00 | 73 | 1009.3 |
| 20260902074544 | 51 | 315 | 2.0 | 5.0 | 0.00 | 0.00 | 0.00 | 71 | 1009.4 |
| 20260902073042 | 51 | 279 | 3.0 | 4.0 | 0.00 | 0.00 | 0.00 | 71 | 1009.4 |
| 20260902071538 | 52 | 139 | 1.0 | 3.0 | 0.00 | 0.00 | 0.00 | 69 | 1009.2 |
| 20260902070037 | 55 | 138 | 0.0 | 2.0 | 0.00 | 0.00 | 0.00 | 65 | 1009.2 |
| 20260902064533 | 57 | 139 | 1.0 | 2.0 | 0.00 | 0.00 | 0.00 | 60 | 1009.4 |
| 20260902063027 | 59 | 138 | 1.0 | 3.0 | 0.00 | 0.00 | 0.00 | 56 | 1009.5 |
| 20260902061537 | 60 | 139 | 0.0 | 3.0 | 0.00 | 0.00 | 0.00 | 53 | 1009.5 |
| 20260902060018 | 60 | 139 | 0.0 | 1.0 | 0.00 | 0.00 | 0.00 | 53 | 1009.6 |
| 20260902054522 | 60 | 139 | 0.0 | 2.0 | 0.00 | 0.00 | 0.00 | 54 | 1009.7 |
| 20260902053017 | 60 | 138 | 0.0 | 2.0 | 0.00 | 0.00 | 0.00 | 54 | 1009.7 |
| 20260902051516 | 60 | 139 | 1.0 | 4.0 | 0.00 | 0.00 | 0.00 | 54 | 1009.7 |
| 20260902050016 | 58 | 139 | 2.0 | 4.0 | 0.00 | 0.00 | 0.00 | 58 | 1009.6 |
| 20260902044523 | 56 | 138 | 0.0 | 0.0 | 0.00 | 0.00 | 0.00 | 62 | 1009.8 |
| 20260902043014 | 57 | 139 | 0.0 | 2.0 | 0.00 | 0.00 | 0.00 | 62 | 1009.8 |
| 20260902041514 | 57 | 139 | 1.0 | 2.0 | 0.00 | 0.00 | 0.00 | 60 | 1009.8 |
| 20260902040014 | 60 | 138 | 0.0 | 0.0 | 0.00 | 0.00 | 0.00 | 54 | 1009.8 |
| 20260902034513 | 60 | 139 | 0.0 | 0.0 | 0.00 | 0.00 | 0.00 | 52 | 1009.8 |
| 20260902033012 | 62 | 139 | 0.0 | 0.0 | 0.00 | 0.00 | 0.00 | 49 | 1010.0 |
| 20260902031518 | 63 | 139 | 0.0 | 1.0 | 0.00 | 0.00 | 0.00 | 46 | 1009.9 |
| 20260902030012 | 65 | 138 | 2.0 | 4.0 | 0.00 | 0.00 | 0.00 | 43 | 1009.9 |
| 20260902024512 | 65 | 139 | 1.0 | 3.0 | 0.00 | 0.00 | 0.00 | 43 | 1009.8 |
| 20260902023026 | 67 | 139 | 2.0 | 5.0 | 0.00 | 0.00 | 0.00 | 40 | 1009.7 |
| 20260902021509 | 68 | 138 | 1.0 | 3.0 | 0.00 | 0.00 | 0.00 | 39 | 1009.8 |
| 20260902020018 | 71 | 138 | 0.0 | 0.0 | 0.00 | 0.00 | 0.00 | 36 | 1009.8 |
| 20260902014518 | 73 | 139 | 0.0 | 0.0 | 0.00 | 0.00 | 0.00 | 34 | 1009.7 |
| 20260902013008 | 75 | 138 | 1.0 | 4.0 | 0.00 | 0.00 | 0.00 | 35 | 1009.7 |
| 20260902011507 | 77 | 138 | 3.0 | 7.0 | 0.00 | 0.00 | 0.00 | 31 | 1009.7 |
| 20260902010010 | 78 | 135 | 4.0 | 9.0 | 0.00 | 0.00 | 0.00 | 31 | 1009.7 |
| 20260902004506 | 79 | 122 | 5.0 | 11.0 | 0.00 | 0.00 | 0.00 | 30 | 1009.8 |
| 20260902003005 | 80 | 111 | 8.0 | 10.0 | 0.00 | 0.00 | 0.00 | 29 | 1009.8 |
| 20260902001505 | 80 | 124 | 9.0 | 12.0 | 0.00 | 0.00 | 0.00 | 29 | 1009.8 |
| 20260902000105 | 81 | 107 | 7.0 | 12.0 | 0.00 | 0.00 | 0.00 | 30 | 1009.9 |
| 20260901234501 | 81 | 154 | 6.0 | 11.0 | 0.00 | 0.00 | 0.00 | 30 | 1009.9 |
| 20260901233105 | 81 | 123 | 8.0 | 13.0 | 0.00 | 0.00 | 0.00 | 30 | 1010.0 |
| 20260901231614 | 81 | 167 | 8.0 | 12.0 | 0.00 | 0.00 | 0.00 | 29 | 1010.2 |
| 20260901230109 | 82 | 164 | 7.0 | 11.0 | 0.00 | 0.00 | 0.00 | 29 | 1010.3 |
| 20260901224555 | 81 | 165 | 8.0 | 11.0 | 0.00 | 0.00 | 0.00 | 29 | 1010.5 |
| 20260901223053 | 81 | 148 | 4.0 | 10.0 | 0.00 | 0.00 | 0.00 | 30 | 1010.7 |
| 20260901221612 | 81 | 188 | 8.0 | 14.0 | 0.00 | 0.00 | 0.00 | 28 | 1010.7 |
| 20260901214546 | 80 | 155 | 9.0 | 14.0 | 0.00 | 0.00 | 0.00 | 29 | 1011.1 |
| 20260901213103 | 80 | 156 | 6.0 | 13.0 | 0.00 | 0.00 | 0.00 | 29 | 1011.2 |
| 20260901211543 | 80 | 200 | 3.0 | 13.0 | 0.00 | 0.00 | 0.00 | 29 | 1011.4 |
| 20260901210040 | 79 | 182 | 5.0 | 10.0 | 0.00 | 0.00 | 0.00 | 31 | 1011.6 |
| 20260901204538 | 79 | 159 | 8.0 | 15.0 | 0.00 | 0.00 | 0.00 | 30 | 1011.7 |
| 20260901203040 | 80 | 167 | 10.0 | 21.0 | 0.00 | 0.00 | 0.00 | 30 | 1011.9 |
| 20260901201536 | 79 | 146 | 9.0 | 15.0 | 0.00 | 0.00 | 0.00 | 31 | 1012.0 |
| 20260901200042 | 79 | 146 | 10.0 | 15.0 | 0.00 | 0.00 | 0.00 | 31 | 1012.1 |
| 20260901194533 | 78 | 180 | 10.0 | 17.0 | 0.00 | 0.00 | 0.00 | 31 | 1012.2 |
| 20260901193027 | 77 | 160 | 9.0 | 16.0 | 0.00 | 0.00 | 0.00 | 32 | 1012.4 |